Tracking 20037 objects as of 21-Nov-2019
Live streaming from Space Station
objects crossing your sky now

IUS R/B(2)

Track IUS R/B(2) now!


NORAD ID: 25869
Int'l Code: 1999-040D
Perigee: 1,511.9 km
Apogee: 71,823.5 km
Inclination: 36.5 °
Period: 1,481.0 minutes
Semi major axis: 43038 km
RCS: 4.4547 m2 (large)
Launch date: July 23, 1999
Source: United States (US)
Launch site: AIR FORCE EASTERN TEST RANGE (AFETR)

Note: This is a ROCKET BODY
aabbcc
Your satellite tracking list
Your tracking list is empty




NASA's NSSDC Master Catalog

Two Line Element Set (TLE):
1 25869U 99040D   19324.13301486 -.00000216  00000-0 -19921-1 0  9991
2 25869  36.5038  66.5726 8168413  46.1274 356.6373  0.97233116 72187
Source of the keplerian elements: AFSPC